[Iaude] MPEC G161: 2024 GU3 [a=0.95,e=0.09,i=14.7,H=25.8]
    mpec at cfa.harvard.edu 
    mpec at cfa.harvard.edu
       
    Thu Apr 11 17:34:48 EDT 2024
    
    
  
M.P.E.C. 2024-G161                               Issued 2024 April 11, 21:33 UT
     The Minor Planet Electronic Circulars contain information on unusual
         minor planets, routine data on comets and natural satellites,
         and occasional editorial announcements.  They are published
    on behalf of Division F of the International Astronomical Union by the
          Minor Planet Center, Smithsonian Astrophysical Observatory,
                          Cambridge, MA 02138, U.S.A.
			  
             Prepared using the Tamkin Foundation Computer Network
                              MPC at CFA.HARVARD.EDU
            URL https://www.minorplanetcenter.net/    ISSN 1523-6714
                                    2024 GU3                                    
Observations:
     K24G03U*1C2024 04 10.37651414 02 25.325-14 23 30.91         18.33GVEG161703
     K24G03U 1C2024 04 10.37876814 02 25.235-14 22 12.40         18.37GVEG161703
     K24G03U 1C2024 04 10.38327514 02 25.213-14 19 36.88               VEG161703
     K24G03U mC2024 04 10.40388614 02 25.015-14 07 37.88         18.26GVEG161I52
     K24G03U mC2024 04 10.40405614 02 25.019-14 07 31.76         18.37GVEG161I52
     K24G03U mC2024 04 10.40422614 02 25.008-14 07 25.93         18.43GVEG161I52
     K24G03U mC2024 04 10.40439614 02 25.026-14 07 20.28         18.29GVEG161I52
     K24G03U  C2024 04 10.40559514 02 24.025-14 06 42.57         18.3 GVEG161H01
     K24G03U  C2024 04 10.40946914 02 24.022-14 04 27.08         18.2 GVEG161H01
     K24G03U mC2024 04 10.41852814 02 24.950-13 59 06.11         18.25GVEG161I52
     K24G03U mC2024 04 10.41869714 02 24.954-13 59 00.24         18.50GVEG161I52
     K24G03U mC2024 04 10.41886814 02 24.932-13 58 54.34         18.30GVEG161I52
     K24G03U mC2024 04 10.41903814 02 24.968-13 58 48.32         18.30GVEG161I52
     K24G03U  C2024 04 10.42021514 02 24.049-13 58 11.41         18.4 GVEG161H01
     K24G03U  C2024 04 10.42673214 02 24.083-13 54 23.05         18.3 GVEG161H01
     K24G03U KC2024 04 10.53138 14 02 56.43 -12 47 14.2          18.6 VqEG161E23
     K24G03U KC2024 04 10.54805 14 02 56.39 -12 37 31.1          18.3 VqEG161E23
     K24G03U KC2024 04 10.55361 14 02 56.33 -12 34 16.6          18.3 VqEG161E23
     K24G03U KC2024 04 10.58303714 03 00.78 -12 23 17.1          18.3 GVEG161900
     K24G03U KC2024 04 10.59296914 03 00.78 -12 17 28.3          18.2 GVEG161900
     K24G03U KC2024 04 10.60290014 03 00.67 -12 11 39.3          17.9 GVEG161900
     K24G03U KB2024 04 10.88865114 03 38.81 -09 22 08.4          18.2 GXEG161I93
     K24G03U KB2024 04 10.89210414 03 38.93 -09 20 04.5          18.3 GXEG161I93
     K24G03U KB2024 04 10.89546714 03 39.07 -09 18 04.0          18.8 GXEG161I93
     K24G03U KC2024 04 10.89873214 03 39.52 -09 16 03.4          18.0 GXEG161958
     K24G03U KC2024 04 10.90199014 03 39.65 -09 14 06.5          18.5 GXEG161958
     K24G03U KC2024 04 10.90520014 03 39.76 -09 12 11.4          18.2 GXEG161958
     K24G03U KB2024 04 10.93595614 03 37.416-08 54 14.56         18.1 GXEG161B72
     K24G03U KB2024 04 10.93943814 03 37.498-08 52 09.60         19.1 GXEG161B72
     K24G03U KC2024 04 10.93958 14 03 31.71 -08 52 06.2          18.2 R EG161585
     K24G03U KC2024 04 10.94041 14 03 31.72 -08 51 36.2          18.1 R EG161585
     K24G03U KC2024 04 10.94129 14 03 31.75 -08 51 04.5          18.4 R EG161585
     K24G03U KC2024 04 10.94260 14 03 31.77 -08 50 17.3          18.2 R EG161585
     K24G03U KB2024 04 10.94296314 03 37.551-08 50 02.49         18.2 GXEG161B72
     K24G03U KC2024 04 10.94391 14 03 31.78 -08 49 29.8          18.3 R EG161585
     K24G03U 1C2024 04 11.00531 14 03 37.55 -08 12 30.8          18.8 VXEG161033
     K24G03U 1C2024 04 11.00554 14 03 37.57 -08 12 22.3          18.9 VXEG161033
     K24G03U 1C2024 04 11.00578 14 03 37.56 -08 12 13.4          18.9 VXEG161033
     K24G03U 1C2024 04 11.00600 14 03 37.56 -08 12 05.5          18.5 VXEG161033
     K24G03U 0B2024 04 11.01348 14 03 35.323-08 01 00.34         19.2 VZEG161M49
     K24G03U 0B2024 04 11.01448 14 03 35.304-08 00 23.94         18.6 VZEG161M49
     K24G03U 0B2024 04 11.01546 14 03 35.287-07 59 48.59         18.2 VZEG161M49
     K24G03U KB2024 04 11.03381814 03 38.258-07 55 11.42         18.5 GXEG161K74
     K24G03U KB2024 04 11.04007914 03 38.357-07 51 24.01         18.1 GXEG161K74
     K24G03U KB2024 04 11.85516 14 05 21.92 +00 29 09.2          17.8 RZEG161106
     K24G03U KB2024 04 11.85775 14 05 22.03 +00 30 45.0          17.5 RZEG161106
     K24G03U KB2024 04 11.86035 14 05 22.14 +00 32 21.1          17.9 RZEG161106
     K24G03U KC2024 04 11.86144 14 05 23.17 +00 33 12.0          19.2 GXEG161K83
     K24G03U KB2024 04 11.86321 14 05 22.26 +00 34 07.7          17.7 RZEG161106
     K24G03U KC2024 04 11.86892 14 05 23.36 +00 37 39.1                VEG161587
     K24G03U KC2024 04 11.87171 14 05 23.47 +00 39 22.7          18.1 GVEG161587
     K24G03U KC2024 04 11.87234 14 05 23.56 +00 39 56.8          18.5 GXEG161K83
Observer details:
033 Karl Schwarzschild Observatory, Tautenburg.  Observers S. Melnikov, C.
    Hogner, F. Ludwig, M. Hartmann, B. Stecklum.  Measurer B. Stecklum.
    1.34-m f/3 Schmidt + CCD.
106 Crni Vrh.  Observer H. Mikuz.  0.60-m f/3.3 reflector + CMO.
585 Kyiv comet station.  Observers A. Baransky, A. Kasianchuk, M. Derkach.
    0.7-m f/4 reflector + CCD.
587 Sormano.  Observers F. Manca, A. Testa.  Measurer F. Manca.  0.5-m f/6.8
    reflector + CCD.
703 Catalina Sky Survey.  Observer J. K. Hogan.  Measurers T. Beuden, V. F.
    Carvajal, D. Fay, J. B. Fazekas, D. C. Fuls, A. R. Gibbs, A. D. Grauer, H.
    Groeller, J. K. Hogan, R. A. Kowalski, S. M. Larson, G. J. Leonard, D.
    Rankin, R. L. Seaman, F. C. Shelly, K. W. Wierzchos.  0.68-m Schmidt + 10K
    CCD.
900 Moriyama.  Observer Y. Ikari.  0.26-m f/7.0 reflector + CMO.
958 Observatoire de Dax.  Observers P. Dupouy, J. B. de Vanssay.  Measurer P.
    Dupouy.  0.43-m f/2.7 Reflector + CCD.
B72 Soerth Observatory.  Observer B. Koch.  0.36-m f/7.6 reflector + CMO.
E23 Arcadia.  Observer A. Hidas.  0.35-m f/1.9 reflector + CCD.
H01 Magdalena Ridge Observatory, Socorro.  Observers W. H. Ryan, E. V. Ryan.
    Measurer W. H. Ryan.  2.4-m f/8.9 Ritchey-Chretien + CCD.
I52 Steward Observatory, Mt. Lemmon Station.  Observer G. J. Leonard.
    Measurers T. Beuden, V. F. Carvajal, D. Fay, J. B. Fazekas, D. C. Fuls, A.
    R. Gibbs, A. D. Grauer, H. Groeller, J. K. Hogan, R. A. Kowalski, S. M.
    Larson, G. J. Leonard, D. Rankin, R. L. Seaman, F. C. Shelly, K. W.
    Wierzchos.  1.0-m prime focus + CCD.
I93 St Pardon de Conques.  Observer F. Losse.  0.40-m f/3.7 reflector + CCD.
K74 Muensterschwarzach Observatory, Schwarzach.  Observer C. Gerhard.  0.30-m
    f/3.75 reflector + CMO.
K83 Beppe Forti Astronomical Observatory, Montelupo.  Observers M. Tombelli,
    M. Iozzi, F. Cheli.  Measurers M. Tombelli, F. Bernardi, A. Squilloni, F.
    Cheli.  0.40-m f/8 Ritchey-Chretien + CCD.
M49 IAS Remote Observatory, Hakos.  Observers D. Husar, M. Junius.  Measurer
    D. Husar.  0.25-m f/4.5 reflector + CMO.
Orbital elements:
2024 GU3                                                 Earth MOID = 0.0244 AU
Epoch 2024 Mar. 31.0 TT = JDT 2460400.5                 Veres                   
M 183.72883              (2000.0)            P               Q                  
n   1.07067588     Peri.  167.31477     +0.98655323     -0.13537280             
a   0.9463041      Node   201.13309     +0.11876249     +0.97871770             
e   0.0876277      Incl.   14.71502     +0.11228620     +0.15422669             
P   0.92           H   25.81          G   0.15           U   5                  
Residuals in seconds of arc
240410 703  0.4+  0.1+    240410 900  0.1-  0.4+    240411 033  0.5+  0.6-
240410 703  0.5-  0.3+    240410 900  0.3+  0.4+    240411 033  0.3+  0.4-
240410 703  0.1+  0.9-    240410 900  0.4-  0.2+    240411 033  0.2+  0.5-
240410 I52  0.1-  0.1-    240410 I93  0.2+  0.0     240411 M49  0.1+  0.1+
240410 I52  0.0   0.1+    240410 I93  0.1-  0.3+    240411 M49  0.2+  0.3+
240410 I52  0.1-  0.0     240410 I93  0.1-  0.3+    240411 M49  0.3+  0.1-
240410 I52  0.1+  0.3-    240410 958  0.4-  0.2+    240411 K74  0.0   0.0
240410 H01  0.0   0.0     240410 958  0.3-  0.3+    240411 K74  0.2+  0.2-
240410 H01  0.0   0.1+    240410 958  0.3-  0.3+    240411 106  0.2+  0.2+
240410 I52  0.0   0.0     240410 B72  0.1+  0.3+    240411 106  0.4+  0.1-
240410 I52  0.1+  0.1-    240410 B72  0.1+  0.1-    240411 106  0.6+  0.4-
240410 I52  0.2-  0.1-    240410 585  0.1-  0.2+    240411 K83  0.6-  0.5+
240410 I52  0.3+  0.1-    240410 585  0.1-  0.2+    240411 106  0.9+  0.2+
240410 H01  0.0   0.1-    240410 585  0.2+  0.1+    240411 587  0.1-  0.2-
240410 H01  0.0   0.1-    240410 585  0.2+  0.0     240411 587  0.0   0.0
240410 E23  0.0   0.3+    240410 B72  0.3-  0.0     240411 K83  0.3-  1.2+
240410 E23  0.1+  0.2+    240410 585  0.2+  0.2+
240410 E23  0.3-  0.2-    240411 033  0.2+  0.8-
Ephemeris:
2024 GU3                 a,e,i = 0.95, 0.09, 15                  q = 0.8634
Date    TT    R. A. (2000) Decl.     Delta      r    Elong.  Phase     V
2024 03 12    12 58 16.1 -75 26 16   0.1357  1.0263   100.1    72.4    24.1
...
2024 03 27    13 32 33.8 -68 34 54   0.07465 1.0292   113.0    63.2    22.5
...
2024 04 04    13 50 09.7 -53 41 41   0.04289 1.0285   130.6    47.6    20.8
...
2024 04 10    14 01 48.5 -17 53 09   0.02601 1.0270   164.9    14.8    18.8
2024 04 11    14 03 37.5 -08 11 10   0.02496 1.0266   168.9    10.9    18.5
2024 04 12    14 05 24.8 +02 02 15   0.02469 1.0263   164.8    14.8    18.7
...
2024 04 18    14 15 43.5 +47 50 28   0.03688 1.0235   120.9    57.3    20.8
...
2024 04 26    14 28 35.7 +67 44 34   0.06692 1.0185    98.7    77.6    22.7
...
2024 05 11    14 49 11.5 +77 45 29   0.1259  1.0054    84.3    88.5    24.4
M. P. C. Staff               (C) Copyright 2024 MPC           M.P.E.C. 2024-G161
    
    
More information about the Iaude
mailing list